Location: Acts Church of Fort Worth
(32.6786°N, 97.2668°W)
Time: 22:02:18
(UTC+00:00)

DELTA 2 R/B (1) - Pass Details

Date: 18 January 2026
Orbit: 786 x 800 km, 39.6° (Epoch: 13 February)

Event Time Altitude Azimuth Distance (km) Brightness Sun altitude
Rises 01:37:03 0° 271° (W) 3,281 8.2 -22.7°
Reaches altitude 10° 01:39:39 10° 278° (W) 2,350 7.0 -23.2°
Maximum altitude 01:44:57 45° 350° (N) 1,069 4.2 -24.3°
Enters shadow 01:45:45 42° 15° (NNE) 1,115 4.1 -24.5°
